Hourly Data Report for November 15, 2018

CARBERRY CS
MANITOBA
Current Station Operator: ECCC - MSC

49°54'20.900" N
99°21'26.800" W
383.50 m
5010547
71170
WZE

Download Data

Hourly Data (November 2018)
Hourly Data Report for November 15, 2018
TIME
LST
Temp Definition
°C
Dew Point Definition
°C
Rel Hum Definition
%
Precip. Amount Definition
mm

Wind Dir Definition
10's deg

Wind Spd Definition
km/h
Visibility Definition
km
Stn Press Definition
kPa
Hmdx Definition


Wind Chill Definition


Weather Definition


00:00 -5.3 -5.7 97 0.0 25 6   96.08   -8 LegendNANA
01:00 -5.6 -7.3 88 0.0 24 8   96.09   -9 LegendNANA
02:00 -5.9 -6.1 98 0.0 35 6   96.21   -9 LegendNANA
03:00 -7.7 -8.5 94 0.0 36 6   96.25   -11 LegendNANA
04:00 -6.9 -8.2 91 0.0 16 6   96.22   -10 LegendNANA
05:00 -6.1 -7.2 92 0.0 24 2   96.26   -7 LegendNANA
06:00 -1.9 -3.9 86 0.0 1 15   96.33   -7 LegendNANA
07:00 -1.7 -3.6 87 0.0 36 14   96.47   -6 LegendNANA
08:00 -2.5 -4.1 89 0.0 1 22   96.58   -9 LegendNANA
09:00 -3.4 -4.6 91 0.0 1 25   96.67   -10 LegendNANA
10:00 -3.3 -4.5 91 0.0 36 23   96.75   -10 LegendNANA
11:00 -3.3 -4.7 90 0.0 36 20   96.84   -9 LegendNANA
12:00 -3.3 -5.9 82 0.0 36 23   96.86   -10 LegendNANA
13:00 -2.8 -6.1 78 0.0 35 24   96.87   -9 LegendNANA
14:00 -2.5 -5.8 78 0.0 35 20   96.90   -8 LegendNANA
15:00 -2.3 -6.3 74 0.0 36 18   96.94   -8 LegendNANA
16:00 -2.7 -5.8 79 0.0 36 16   97.01   -8 LegendNANA
17:00 -2.9 -6.0 79 0.0 34 9   97.07   -6 LegendNANA
18:00 -3.0 -6.3 78 0.0 36 12   97.11   -7 LegendNANA
19:00 -3.4 -6.6 78 0.0 1 10   97.11   -7 LegendNANA
20:00 -4.0 -6.3 84 0.0 2 15   97.15   -9 LegendNANA
21:00 -5.0 -6.8 87 0.0 2 15   97.12   -11 LegendNANA
22:00 -5.6 -6.9 90 0.0 2 12   97.11   -11 LegendNANA
23:00 -6.1 -7.3 91 0.0 4 17   97.14   -12 LegendNANA

Notes on Data Quality.

Legend

  • E = Estimated
  • M = Missing
  • NA = Not Available*
  • [empty] = Indicates an unobserved value
Date modified: